TimeEDT,TemperatureF,Dew PointF,Humidity,Sea Level PressureIn,VisibilityMPH,Wind Direction,Wind SpeedMPH,Gust SpeedMPH,PrecipitationIn,Events,Conditions,WindDirDegrees,DateUTC
12:51 AM,48.9,45.0,86,30.13,10.0,Calm,Calm,-,N/A,,Clear,0,2012-03-19 04:51:00
1:51 AM,46.9,43.9,89,30.13,10.0,Calm,Calm,-,N/A,,Clear,0,2012-03-19 05:51:00
3:51 AM,43.9,39.9,86,30.12,10.0,Calm,Calm,-,N/A,,Clear,0,2012-03-19 07:51:00
4:51 AM,43.9,41.9,93,30.14,10.0,Calm,Calm,-,N/A,,Clear,0,2012-03-19 08:51:00
5:51 AM,41.9,38.8,89,30.14,10.0,NNW,3.5,-,N/A,,Clear,330,2012-03-19 09:51:00
7:51 AM,45.0,41.9,89,30.17,6.0,NW,4.6,-,N/A,,Clear,320,2012-03-19 11:51:00
8:51 AM,52.0,45.9,80,30.18,8.0,Calm,Calm,-,N/A,,Clear,0,2012-03-19 12:51:00
9:51 AM,59.9,46.9,62,30.19,2.5,Calm,Calm,-,N/A,,Haze,0,2012-03-19 13:51:00
10:04 AM,62.6,46.4,55,30.18,9.0,Calm,Calm,-,N/A,,Clear,0,2012-03-19 14:04:00
10:51 AM,68.0,47.8,48,30.18,10.0,Variable,3.5,-,N/A,,Clear,0,2012-03-19 14:51:00
11:51 AM,72.9,47.8,41,30.17,10.0,NE,3.5,-,N/A,,Clear,40,2012-03-19 15:51:00
1:51 PM,79.0,46.9,32,30.17,10.0,SE,10.4,-,N/A,,Scattered Clouds,130,2012-03-19 17:51:00
2:51 PM,79.9,46.9,31,30.15,10.0,ESE,10.4,-,N/A,,Clear,110,2012-03-19 18:51:00
3:51 PM,75.9,45.9,34,30.17,10.0,East,16.1,-,N/A,,Clear,90,2012-03-19 19:51:00
4:51 PM,68.0,45.0,43,30.19,10.0,East,10.4,-,N/A,,Clear,80,2012-03-19 20:51:00
5:51 PM,63.9,43.9,48,30.21,10.0,ESE,11.5,-,N/A,,Clear,110,2012-03-19 21:51:00
6:51 PM,59.9,43.9,55,30.23,10.0,ENE,3.5,-,N/A,,Clear,70,2012-03-19 22:51:00
8:51 PM,54.9,43.9,66,30.27,10.0,ENE,3.5,-,N/A,,Clear,70,2012-03-20 00:51:00
9:51 PM,52.0,43.0,71,30.28,10.0,ENE,3.5,-,N/A,,Clear,60,2012-03-20 01:51:00
10:51 PM,50.9,43.0,74,30.29,10.0,Calm,Calm,-,N/A,,Clear,0,2012-03-20 02:51:00
11:51 PM,48.9,43.0,80,30.30,10.0,Calm,Calm,-,N/A,,Clear,0,2012-03-20 03:51:00